RH
54 49 43 36 27 21 18 14 11 10 11 12 12 13 14 14 15 14 15 15 13 11 9 14 24 27 24 20 16 14 8 5 12 17 19 24 28 33 33 36 38 32 30 28 23 28 35 39 43 46 50 51 52 52 55 56 51 46 49 59 65 67 68 68 75 86 90 93 97 97 98 98 98 98 89 81 79 82 86 86 86 84 80 79 79
57 47 37 34 32 28 24 20 15 13 12 13 13 13 14 14 14 15 15 15 12 8 6 8 15 16 14 14 17 19 13 8 15 19 21 27 31 30 28 30 29 22 19 17 18 22 25 26 27 30 35 38 42 45 50 56 54 48 44 43 48 58 66 68 75 84 88 91 92 93 99 97 96 100 94 86 82 82 84 86 87 83 81 88 93
44 40 38 36 33 28 23 20 17 15 13 13 13 13 15 14 14 16 15 15 13 9 6 5 10 13 10 7 9 13 13 14 18 18 17 22 25 25 26 33 32 21 17 17 18 18 18 22 25 26 27 27 29 30 36 47 51 49 46 41 36 41 54 63 69 76 80 86 89 89 92 92 92 99 100 92 81 76 81 88 89 83 83 95 98
30 27 30 27 22 18 15 15 13 12 12 12 14 14 14 15 15 16 15 16 13 8 6 4 8 12 10 5 5 8 13 19 22 22 22 21 26 30 30 36 36 27 24 22 19 19 21 27 30 29 27 26 28 27 22 26 34 37 39 41 38 34 40 48 53 61 70 82 91 90 88 88 92 100 101 94 82 78 82 88 91 84 84 95 99
19 16 16 13 10 10 10 11 10 11 12 13 14 15 15 15 15 16 16 15 13 7 5 4 5 7 7 5 4 8 15 22 24 26 26 21 23 28 27 28 32 30 27 22 18 18 20 22 24 24 20 19 26 33 29 18 16 21 25 33 39 36 35 37 39 46 59 74 84 89 93 94 98 101 97 90 86 85 87 90 94 90 84 91 98
12 11 10 9 9 10 10 10 10 11 13 14 15 15 16 16 15 16 15 14 12 7 4 4 4 5 6 4 4 10 18 24 24 23 24 26 29 31 23 18 23 25 21 17 14 13 13 14 15 17 19 18 20 30 36 30 22 18 18 24 35 38 35 33 33 38 54 67 72 82 92 95 99 98 92 91 91 88 89 92 95 93 89 93 98
11 10 10 11 11 11 11 11 12 13 14 14 15 17 17 17 16 15 15 14 10 6 4 4 4 4 4 3 6 14 20 19 19 19 19 26 39 40 26 16 22 26 22 22 22 16 11 10 12 14 17 18 19 25 33 37 37 33 29 28 31 37 37 32 30 34 49 60 62 75 89 92 95 95 92 95 93 89 92 94 93 93 94 97 97
12 12 11 11 12 12 13 14 14 14 15 16 17 19 19 17 16 15 13 12 9 5 4 4 4 4 3 4 5 10 13 10 14 21 16 18 35 40 24 15 19 19 16 23 30 24 13 8 10 14 16 16 16 21 25 34 44 46 47 42 34 36 39 33 28 31 42 54 60 71 83 90 93 93 93 94 92 92 96 98 97 97 96 97 95
12 12 11 11 12 13 15 16 16 17 17 18 19 19 19 17 16 16 14 12 8 5 4 4 4 4 3 4 4 5 7 5 10 18 15 15 29 35 24 15 13 11 10 18 29 28 18 10 8 12 18 19 18 18 18 25 39 44 50 51 41 37 40 35 28 28 35 47 58 63 72 83 88 88 89 90 90 91 94 99 99 99 100 98 95
12 12 11 11 12 14 18 19 19 20 20 20 21 21 20 19 17 17 16 14 10 6 4 4 4 4 4 4 4 4 5 4 6 10 11 12 19 24 20 13 11 10 8 11 21 25 19 14 10 10 17 22 25 28 25 24 34 44 49 48 43 41 42 36 28 27 32 42 52 56 63 73 79 84 89 91 92 90 91 97 99 101 102 99 96
13 12 12 11 13 17 19 21 23 24 23 23 23 23 22 20 19 18 17 15 12 7 5 5 5 5 5 4 4 4 4 5 5 7 8 9 10 12 11 9 9 10 8 7 12 14 13 14 12 10 17 23 25 30 40 45 47 54 57 48 41 44 45 36 29 31 34 42 50 54 60 66 67 75 86 92 96 95 93 95 98 100 100 99 100
14 13 13 13 15 19 23 26 28 27 27 27 27 27 25 22 20 19 18 16 13 8 5 6 6 5 5 5 5 5 5 6 5 5 7 7 8 8 7 8 8 7 7 6 8 9 9 11 11 10 17 25 24 27 46 67 67 60 59 53 44 47 48 38 31 36 41 45 49 52 60 65 63 73 89 97 100 99 97 97 98 100 100 100 100
17 15 16 18 19 24 28 31 33 31 31 32 32 32 29 25 22 20 19 17 14 9 6 6 6 6 6 6 6 7 6 6 6 6 6 7 8 8 7 7 6 6 7 8 12 14 13 13 13 12 15 18 20 21 33 57 68 56 47 54 54 49 50 44 32 33 40 43 47 52 59 64 70 83 95 98 97 97 99 100 100 101 100 99 98
19 19 20 23 26 31 35 37 38 35 35 37 38 36 31 28 25 22 20 18 15 11 7 6 7 7 7 7 7 7 7 7 7 7 8 8 8 8 8 7 6 6 7 9 13 14 15 15 14 14 14 14 14 16 22 36 54 51 37 49 63 52 49 52 39 29 34 38 45 54 57 63 77 88 90 91 94 98 99 99 99 101 100 96 93
21 22 25 30 34 39 44 44 42 39 40 42 39 36 33 31 28 24 22 20 17 14 9 7 8 8 8 8 7 7 7 7 8 8 9 9 9 8 8 7 6 6 7 10 12 12 14 15 16 15 13 14 12 13 19 26 41 47 37 46 68 62 52 56 47 34 34 39 46 54 57 65 80 86 83 84 91 97 94 90 93 99 99 93 89
25 27 32 38 42 48 50 48 44 42 44 42 38 36 34 32 29 26 24 22 19 15 12 10 9 9 8 7 7 6 7 8 8 10 10 10 10 9 8 8 8 9 10 11 12 13 14 14 16 16 12 12 11 10 18 28 39 50 47 52 73 76 66 62 54 40 37 41 46 49 55 68 78 81 81 81 87 91 85 80 85 90 91 90 87
30 33 40 44 48 53 54 51 49 48 46 43 40 39 36 31 29 27 27 26 23 18 13 11 10 10 8 6 7 7 8 9 9 11 11 11 10 9 9 10 10 12 12 12 14 14 15 14 13 14 11 11 11 9 17 32 45 54 53 56 71 83 81 73 61 46 40 43 45 44 52 68 78 81 83 81 83 87 83 80 81 79 82 86 85
38 40 44 46 51 56 56 54 52 50 48 46 45 42 37 32 29 29 30 29 26 20 15 12 9 9 7 6 7 7 9 9 9 11 12 11 11 9 10 12 12 13 13 13 15 15 15 15 13 14 12 11 12 14 19 33 52 60 55 56 71 83 86 83 73 60 51 49 47 41 46 65 79 82 83 80 79 86 89 83 77 75 80 85 85
47 45 45 47 53 57 56 55 53 50 49 50 50 46 40 36 33 32 33 32 29 23 16 11 9 8 7 7 7 8 9 10 11 13 13 12 12 11 13 16 14 14 14 13 14 15 14 13 14 14 13 12 13 18 24 32 53 69 63 61 71 77 79 82 82 80 76 69 61 49 46 63 80 82 82 78 75 84 91 82 72 73 80 86 88
56 51 49 51 56 57 57 56 53 51 53 55 54 50 45 43 39 34 32 31 28 23 17 12 9 8 8 7 8 9 10 12 13 14 14 13 13 15 18 19 18 16 15 14 13 14 14 13 14 13 13 14 13 21 29 29 44 67 69 68 76 80 81 82 84 91 90 75 60 49 44 56 76 84 83 79 75 79 81 73 70 77 84 88 88
58 54 52 54 56 58 58 58 56 56 58 58 56 54 51 47 41 32 28 29 26 22 18 13 10 9 9 9 9 10 12 14 16 15 14 15 17 21 23 21 21 19 16 14 13 14 14 13 13 12 12 13 13 25 36 29 36 60 73 80 86 84 84 85 82 87 90 77 58 47 43 48 64 80 84 83 80 74 67 61 66 80 90 89 82
57 56 56 59 62 63 64 62 61 60 60 60 59 57 54 48 39 28 25 27 25 22 18 14 11 10 10 10 10 12 15 17 18 17 17 20 22 26 27 25 23 19 16 16 15 16 16 14 14 12 12 12 14 30 43 36 37 57 75 87 85 74 78 84 80 79 87 89 71 50 43 45 57 75 83 82 76 66 58 55 58 70 77 72 67
62 64 65 68 68 67 67 64 63 63 62 63 61 58 54 45 34 25 25 27 24 21 17 13 12 12 12 13 13 15 17 19 21 22 22 25 27 29 29 26 23 20 19 18 18 18 17 14 15 14 14 12 15 38 55 46 44 60 77 87 83 76 79 83 81 81 88 92 75 49 38 42 56 73 77 71 64 59 54 49 53 66 69 58 55
69 70 70 70 67 66 67 66 67 67 65 63 61 57 50 38 28 26 27 27 23 20 16 14 14 15 16 17 17 18 19 21 24 26 28 29 30 31 29 27 25 23 22 21 20 19 16 15 15 14 15 13 17 45 67 59 51 60 76 87 87 88 91 85 82 87 89 88 84 69 48 39 51 67 70 63 58 57 55 50 57 72 76 65 55
70 71 70 69 69 69 71 70 70 68 65 63 58 51 42 32 29 30 29 27 23 19 16 16 17 19 20 21 20 20 22 25 28 31 33 32 30 30 30 29 27 26 24 22 21 20 17 16 15 14 16 15 18 45 75 79 70 68 78 87 87 89 94 89 84 88 88 87 93 88 62 46 53 64 67 62 58 59 58 54 55 63 73 73 62
68 70 72 73 74 74 74 72 70 67 63 58 50 42 37 35 35 34 31 27 24 21 20 21 23 24 25 25 25 26 28 32 35 37 36 33 31 31 31 30 29 27 26 25 23 21 19 17 16 14 16 15 15 36 72 93 90 83 87 91 90 88 91 92 92 92 91 91 96 91 68 55 59 65 65 64 62 62 59 54 54 61 74 78 69
67 71 73 74 74 73 71 67 64 59 52 46 41 40 40 41 40 37 35 32 28 26 25 27 30 32 33 34 34 35 38 40 42 41 40 38 36 35 33 31 30 29 29 28 26 24 20 18 18 17 16 16 15 31 67 91 91 87 90 95 97 96 94 97 100 96 89 85 94 96 76 56 57 65 68 67 66 62 56 58 63 64 68 70 68
66 68 70 67 64 60 57 53 49 44 41 41 43 45 45 45 44 41 40 38 34 31 30 31 35 38 41 43 43 44 46 48 47 46 44 43 40 37 33 32 31 31 32 31 28 26 22 19 20 20 19 17 15 30 66 91 92 87 86 91 99 101 97 98 101 99 89 80 88 99 85 61 58 70 75 73 72 68 63 67 66 56 55 61 64
50 52 52 49 45 42 41 41 40 41 44 47 48 49 48 47 47 45 43 40 37 35 34 34 37 42 45 48 49 51 52 52 52 51 49 46 43 39 34 31 29 30 33 33 30 28 24 21 21 21 22 20 16 27 61 90 97 94 90 91 99 102 99 100 100 97 90 83 86 97 93 75 67 72 77 78 80 78 72 69 63 53 52 55 54
41 42 42 40 39 40 42 45 46 48 50 51 52 52 51 50 50 49 45 42 40 39 38 38 39 43 47 50 51 52 50 49 47 45 43 42 41 39 35 30 28 30 34 35 33 31 28 23 22 22 23 22 18 24 52 83 95 98 99 97 99 102 100 100 100 95 89 87 90 96 97 90 80 75 74 77 82 81 70 61 56 50 47 45 45
50 50 49 48 49 51 52 52 52 52 54 57 58 55 54 56 57 54 52 51 50 49 46 45 44 44 46 48 48 46 43 40 37 34 32 32 32 32 31 29 28 30 34 36 34 33 31 27 23 23 23 23 20 20 42 77 95 97 100 100 99 101 101 100 100 96 90 87 87 90 95 96 92 82 74 74 79 76 63 53 48 42 38 38 42
54 55 54 54 54 55 57 58 57 58 60 62 62 61 62 67 67 64 62 61 60 57 54 51 48 46 45 45 45 44 42 40 37 35 34 33 33 32 31 30 29 30 34 36 34 33 34 31 26 24 23 23 22 19 32 68 97 100 99 100 101 100 100 100 100 99 96 87 79 82 88 94 95 83 70 72 77 67 52 45 42 38 35 36 39
63 66 65 66 66 64 65 65 66 68 69 72 75 75 75 75 72 69 67 66 64 62 59 57 55 53 52 51 51 50 47 44 41 39 38 37 37 36 35 33 32 32 34 35 34 33 36 36 30 26 24 22 22 20 23 49 85 100 99 99 101 100 100 100 100 101 98 87 77 78 81 84 89 83 71 76 85 71 50 41 38 36 36 36 36
75 78 77 77 77 76 76 78 79 81 83 83 82 80 77 75 74 72 70 69 69 68 65 63 62 62 60 58 56 54 49 46 44 42 41 40 38 37 37 36 35 35 35 36 36 35 37 41 36 29 26 23 22 22 21 31 60 89 101 100 99 101 101 100 99 97 94 89 85 84 80 76 83 91 88 89 96 84 56 39 37 36 36 35 35
82 82 83 84 84 83 84 85 85 85 84 81 78 78 78 77 74 70 66 65 66 68 69 69 70 69 67 63 60 57 52 49 47 45 43 42 41 40 39 37 36 36 36 36 37 37 38 42 42 35 30 26 23 22 21 22 36 64 89 100 100 100 100 98 98 96 93 92 90 86 81 78 83 94 93 90 97 91 65 47 43 40 38 36 36
86 85 86 89 89 88 89 89 86 83 81 80 81 81 79 76 71 66 64 62 61 63 66 67 68 67 65 62 59 56 53 50 48 46 44 42 42 41 40 40 39 37 37 36 37 39 40 41 42 38 33 30 26 23 22 22 24 38 63 86 98 101 100 99 99 98 94 94 92 86 83 86 91 97 95 89 92 89 71 61 60 53 47 44 40
75 75 75 75 75 75 78 81 83 84 83 83 82 80 76 73 71 71 71 71 70 69 68 68 67 66 64 60 58 56 54 52 50 49 48 46 45 44 42 42 41 39 38 37 37 39 41 40 40 37 33 31 28 25 22 21 22 25 39 61 82 95 100 100 99 98 94 93 94 90 84 83 88 96 98 93 90 82 67 64 71 68 59 52 49
65 66 67 68 67 67 69 71 74 77 77 77 77 77 78 79 79 80 80 79 78 75 72 70 68 67 66 64 61 59 56 54 52 51 50 48 47 47 45 44 44 42 40 39 38 38 38 39 38 36 34 32 29 26 23 21 21 22 26 37 56 79 96 102 101 100 97 97 99 96 87 78 74 79 88 91 93 88 74 68 78 81 72 63 60
70 69 70 70 71 73 74 73 73 73 76 80 83 86 87 85 82 79 76 73 71 67 64 62 61 59 59 57 55 52 49 47 45 44 43 43 42 42 42 41 41 41 40 40 39 38 37 38 38 36 35 34 31 28 25 22 20 21 23 27 36 54 75 90 98 102 102 101 101 98 91 83 73 68 72 80 90 91 80 74 82 90 85 73 64
78 77 77 77 77 77 77 77 79 83 87 90 90 87 82 78 73 69 65 60 55 51 46 43 39 36 34 32 30 29 27 26 26 26 25 25 26 27 27 28 29 30 31 32 33 33 33 33 34 33 33 32 31 30 27 24 21 20 21 23 27 35 48 62 75 88 97 101 102 99 95 92 88 78 69 70 79 84 81 77 79 84 89 84 73
81 81 82 82 81 80 81 83 86 88 88 85 81 74 68 62 55 47 41 35 30 26 24 23 22 21 21 21 21 20 20 20 20 20 19 19 18 17 17 18 18 19 20 21 21 22 23 23 23 23 23 24 26 28 28 27 24 21 20 22 24 28 34 42 51 62 73 85 95 101 101 99 96 89 83 81 81 81 83 82 76 76 84 87 81
83 85 86 86 86 85 84 82 80 77 72 65 57 48 40 34 29 25 24 25 25 26 27 26 26 26 25 25 25 24 24 25 25 26 25 25 25 24 23 22 20 19 18 18 17 16 16 17 17 17 18 19 20 21 23 25 26 24 22 22 23 25 27 33 40 45 49 55 67 82 94 101 102 97 95 95 93 89 89 88 80 79 85 84 79
86 86 85 83 80 76 71 66 59 51 43 34 29 26 25 26 29 30 31 30 27 25 22 19 17 15 13 13 12 12 12 13 14 15 15 16 18 19 21 22 22 22 22 21 20 19 18 18 18 19 20 21 21 20 18 19 22 24 23 22 23 25 26 27 32 38 40 41 48 57 66 79 94 100 100 100 98 96 95 93 87 87 90 89 82
82 78 74 70 64 57 49 41 33 26 24 26 29 33 34 33 30 25 20 15 11 8 6 5 4 4 3 3 3 3 4 4 4 4 4 5 6 7 8 10 12 14 16 17 19 20 20 20 20 21 23 24 25 25 21 18 18 19 21 23 23 26 28 27 28 32 35 38 47 57 59 59 68 82 93 100 101 100 99 98 96 94 96 96 90
69 63 57 49 40 31 25 23 26 31 37 39 36 31 24 17 11 7 5 3 3 3 3 3 2 2 2 2 3 3 3 3 3 3 3 3 3 3 3 4 4 5 7 8 10 13 15 17 18 19 21 23 24 26 26 25 22 19 18 21 24 28 32 32 30 30 32 34 39 48 56 58 59 65 77 88 95 99 100 99 99 99 100 100 98
48 39 31 24 21 24 31 38 43 41 35 26 16 10 7 4 3 3 3 3 3 3 3 3 3 3 3 3 3 3 4 4 4 4 4 4 4 4 4 4 4 4 4 4 4 6 7 9 11 13 15 17 18 20 23 26 27 26 22 20 21 26 33 38 38 35 32 33 35 36 40 46 51 60 71 77 81 91 100 102 100 100 100 101 100
23 19 20 27 37 45 48 43 33 21 12 6 3 3 3 3 3 3 3 3 3 3 3 3 4 4 4 4 4 4 4 5 5 5 5 5 5 5 5 5 5 5 4 4 4 4 4 4 5 6 8 9 10 12 14 18 23 28 29 27 24 24 28 35 43 44 39 35 35 35 37 38 40 48 60 65 66 74 87 94 94 94 96 97 98
23 32 43 51 52 44 31 18 10 5 4 3 3 3 3 3 4 4 3 4 4 4 4 4 4 5 5 5 5 5 5 5 5 6 6 6 7 7 7 7 7 6 6 6 5 5 4 4 4 4 4 5 6 6 7 10 14 20 27 31 32 31 31 33 38 45 47 44 39 37 38 40 41 41 45 49 52 58 68 76 83 89 92 88 85
51 57 54 44 30 17 8 5 4 3 3 3 3 4 4 4 4 4 4 4 4 4 5 5 5 6 6 6 6 6 6 6 6 7 7 8 8 9 9 9 8 8 8 7 6 6 6 5 5 5 4 4 4 5 5 5 7 11 17 24 31 35 37 39 40 42 46 48 47 44 42 43 45 45 44 44 48 54 59 66 76 88 92 82 72
57 45 29 16 8 5 4 4 3 3 4 5 5 5 4 4 5 5 5 5 4 5 5 6 6 7 7 8 8 8 8 8 8 7 8 8 9 10 10 10 10 9 9 8 8 8 7 6 6 5 5 5 4 4 5 5 5 6 8 14 22 29 36 43 48 50 52 53 53 53 50 47 48 51 52 50 50 54 57 64 76 86 84 75 68
28 17 8 5 4 3 3 4 4 5 5 5 5 6 6 6 6 5 5 6 6 6 6 7 7 8 8 9 9 9 9 10 9 9 8 8 9 9 10 10 10 10 9 9 8 8 8 7 7 6 6 6 5 5 5 5 5 5 5 7 11 19 30 41 50 58 62 65 66 65 60 55 52 54 57 56 55 56 58 66 81 91 83 72 67
Wind_Speed
16 14 13 14 15 17 18 19 19 18 17 16 15 15 16 17 18 19 18 19 21 21 21 21 20 20 20 21 21 21 21 22 21 22 24 25 26 27 29 30 29 27 24 22 22 22 21 21 22 23 24 24 25 25 25 25 24 24 24 23 24 24 25 27 27 25 23 24 25 25 25 24 22 22 24 24 21 21 21 20 20 19 18 16 14
18 16 16 17 18 20 20 20 20 19 18 17 16 15 17 18 19 19 19 19 21 21 22 22 21 20 21 21 21 20 21 22 22 22 22 23 25 26 28 31 32 32 30 27 25 23 23 23 24 24 25 25 25 26 26 26 25 25 25 24 24 25 25 26 26 24 22 23 24 24 24 26 26 26 25 24 23 23 21 20 20 20 19 17 15
22 19 18 19 19 20 20 20 19 19 19 17 16 16 17 18 19 19 20 20 21 21 22 23 23 22 22 22 22 21 22 22 22 22 23 23 25 26 27 29 31 32 32 31 29 27 26 25 25 26 26 26 26 26 27 27 27 27 27 26 25 25 25 24 24 24 23 24 24 24 24 26 27 26 26 26 26 24 21 20 21 20 20 19 17
23 21 20 20 20 19 19 20 19 19 18 17 17 17 18 19 20 20 20 21 21 22 22 23 23 23 23 22 22 22 22 22 22 22 23 23 24 25 25 27 27 29 31 31 31 31 30 28 28 28 29 29 27 26 27 28 28 28 29 27 25 25 25 24 25 24 24 25 26 25 24 25 26 26 27 27 26 24 21 21 21 21 21 20 19
24 23 22 22 20 19 20 20 20 18 17 17 17 17 18 19 20 21 21 22 22 22 22 24 24 24 24 23 22 21 22 22 22 23 23 23 23 24 25 25 25 27 30 31 32 32 32 32 32 32 31 30 29 27 26 28 28 28 29 29 27 25 24 24 26 26 24 25 26 25 23 23 25 26 27 26 24 24 23 22 23 23 22 21 20
26 25 24 23 20 20 20 20 20 18 17 17 17 17 18 19 20 21 22 23 23 23 23 24 26 26 25 24 22 21 22 23 23 23 23 23 23 23 25 26 26 27 29 31 32 33 34 34 34 34 33 31 30 29 27 27 28 28 28 30 29 27 25 23 25 26 25 25 24 24 23 23 24 25 25 23 22 23 23 22 23 24 23 22 20
27 26 25 23 21 20 20 20 19 18 18 18 17 18 18 19 20 21 22 23 24 24 24 25 26 27 26 25 24 22 22 23 23 23 23 23 24 24 25 26 27 28 29 30 31 32 34 35 35 35 35 33 32 30 29 28 27 27 28 30 31 29 26 23 24 25 25 25 24 23 22 22 23 24 23 23 22 22 23 23 23 24 24 23 21
28 28 27 25 22 21 20 19 19 18 18 18 18 18 18 19 20 21 23 23 24 24 24 25 26 27 27 27 26 24 23 24 24 24 24 23 24 24 26 27 28 28 28 29 30 31 33 35 36 36 35 36 34 32 31 30 28 28 28 30 32 31 27 24 24 25 25 24 24 23 21 21 24 23 23 23 23 24 25 25 25 25 25 24 23
30 30 29 27 24 22 20 20 19 18 19 19 19 19 19 20 21 22 23 23 24 25 25 25 25 26 27 28 28 26 25 25 24 24 25 24 24 24 26 27 27 27 28 29 30 30 32 34 36 36 36 36 37 35 34 32 30 29 28 29 30 31 28 25 25 26 26 24 23 24 23 21 23 25 25 25 25 26 26 27 27 27 26 25 24
32 30 29 27 25 23 21 21 20 19 19 19 19 19 20 21 22 22 23 23 24 24 25 26 25 26 27 28 29 28 27 26 25 24 24 25 25 25 26 26 26 26 27 28 30 31 32 33 35 35 36 36 36 37 36 34 31 30 28 27 28 29 27 25 25 26 26 25 24 24 23 21 22 25 27 28 28 27 26 27 27 27 26 26 25
32 30 28 27 26 24 23 22 21 20 20 20 20 20 21 22 23 23 23 24 24 24 25 26 26 26 27 28 29 29 29 28 27 26 25 25 26 26 26 26 26 27 27 28 30 32 32 32 33 34 35 36 36 36 37 36 33 29 26 25 26 27 26 25 26 26 27 26 25 23 23 22 22 23 27 29 28 26 26 26 26 25 25 25 24
32 30 28 27 26 25 23 23 22 21 21 20 21 21 22 23 23 24 24 24 25 25 25 25 26 26 26 27 29 29 30 29 30 29 28 28 28 29 29 28 28 28 29 29 29 31 32 32 32 33 34 36 36 36 37 37 35 30 26 24 24 25 25 25 26 27 27 27 25 23 23 22 21 22 24 26 26 26 26 26 25 24 23 23 23
32 30 28 27 26 25 24 24 23 22 21 21 22 23 23 23 24 25 26 25 25 25 25 26 26 26 26 27 28 28 29 30 30 30 30 31 31 31 31 31 31 30 30 30 29 31 32 32 32 32 34 36 36 36 37 38 37 33 29 26 25 25 26 26 27 28 28 28 26 24 23 21 20 21 20 20 22 23 22 23 23 23 22 21 20
32 30 28 27 26 25 25 24 24 23 22 22 23 23 24 24 25 26 26 27 26 26 26 27 27 27 27 27 27 28 29 30 30 31 31 32 32 32 33 33 33 32 32 32 32 32 33 33 33 33 34 36 37 37 37 38 38 36 32 28 27 27 27 27 27 28 29 29 27 25 24 21 19 20 20 19 18 18 18 19 20 21 21 20 19
31 29 27 27 26 25 25 24 24 24 24 24 24 24 25 26 27 27 27 27 27 27 27 28 28 28 28 28 28 28 28 29 30 31 32 32 33 33 33 34 33 33 34 34 34 34 35 36 36 36 36 37 38 38 37 38 38 35 33 30 28 27 27 27 27 28 29 29 28 26 24 21 19 20 20 19 18 18 18 19 19 21 21 20 19
29 28 28 27 27 26 26 26 26 26 25 26 26 26 26 27 28 28 28 28 28 28 28 29 29 29 29 29 29 29 29 29 30 31 32 32 33 33 33 34 34 34 34 34 35 35 36 37 38 38 39 39 40 40 39 38 36 34 33 31 29 28 27 27 28 29 29 29 28 27 24 22 21 21 20 19 19 19 19 19 19 20 20 20 19
28 28 28 28 27 27 27 27 27 27 27 28 27 28 28 29 29 29 29 29 29 29 29 30 31 31 31 30 30 30 29 30 31 32 32 33 33 33 33 33 33 32 33 34 35 36 37 38 38 39 39 39 40 40 39 37 36 35 34 32 29 29 27 27 28 30 30 29 29 27 26 24 22 21 21 20 20 21 21 20 19 20 21 22 20
29 29 29 29 29 29 29 29 29 29 29 29 29 30 30 30 31 31 31 30 30 30 31 31 32 32 32 32 31 31 31 32 32 33 33 34 34 33 33 32 32 32 33 35 36 36 37 38 38 39 40 40 40 39 38 38 37 36 34 32 30 29 27 27 28 29 30 29 28 28 28 26 23 22 23 22 22 23 22 21 21 21 22 22 21
30 30 31 31 31 32 31 31 31 31 31 31 31 32 32 32 32 32 32 32 32 32 32 33 33 33 33 33 33 32 32 33 33 34 34 34 34 34 33 32 32 33 35 37 37 37 37 38 39 40 41 41 41 40 38 38 38 36 34 32 30 28 28 28 28 28 28 27 27 28 28 27 25 23 24 24 24 24 23 22 22 21 21 22 21
31 31 32 33 33 33 33 33 32 32 33 33 33 34 34 34 35 35 35 35 34 33 33 34 34 34 34 34 34 34 34 34 34 35 35 35 34 34 33 33 33 35 37 38 38 37 37 39 41 41 41 42 43 41 38 38 38 36 33 32 30 28 28 28 28 27 27 27 27 28 28 28 27 24 23 24 25 25 24 23 23 22 22 22 22
31 31 33 34 35 34 34 34 34 34 35 35 36 36 36 36 37 38 37 36 35 34 34 34 34 35 35 35 35 34 35 35 35 36 36 35 35 34 33 34 35 37 38 38 38 37 38 39 41 42 41 42 43 41 37 37 36 34 33 31 28 27 27 27 28 28 27 28 28 28 29 29 28 26 24 24 25 25 25 24 23 22 22 23 24
31 32 33 34 35 35 36 36 36 36 37 37 38 38 38 39 40 39 38 37 36 35 34 34 35 35 35 35 35 35 35 36 36 37 36 36 35 35 35 36 37 38 38 38 38 39 39 40 41 42 42 42 42 39 35 34 34 32 32 31 28 28 28 28 29 29 27 26 27 28 29 29 28 27 25 25 26 26 26 25 25 23 24 26 25
32 33 35 35 36 37 37 37 37 38 38 39 39 39 40 41 41 40 38 37 36 36 35 35 35 35 36 36 36 36 36 37 37 37 37 37 36 36 37 38 38 38 38 39 40 40 40 40 41 41 42 43 42 37 33 32 31 31 31 31 29 29 29 27 28 29 27 25 27 29 29 29 29 28 26 27 27 26 27 27 26 25 26 27 26
33 34 36 36 37 37 37 38 38 39 40 40 40 41 42 43 42 40 38 37 36 35 35 35 36 36 36 36 37 37 37 37 37 38 38 37 38 38 39 39 39 39 39 39 41 41 41 41 41 41 41 42 42 37 31 30 30 30 29 30 29 28 27 27 28 30 29 27 27 28 28 29 30 29 27 28 27 26 27 27 27 26 25 25 25
33 34 36 36 37 38 38 39 39 40 41 41 42 43 43 42 41 39 38 36 36 35 35 35 36 36 37 37 38 38 38 38 38 38 38 38 39 39 39 40 39 40 40 41 42 42 41 42 42 42 41 40 40 36 32 29 28 28 28 29 30 29 27 27 29 31 29 27 27 26 27 28 30 30 29 29 28 27 28 28 28 28 25 23 24
33 34 36 36 37 38 38 39 40 41 42 42 43 43 41 41 39 38 37 36 35 35 35 36 36 36 37 37 38 38 39 39 39 39 39 39 40 40 39 40 40 40 41 41 42 43 42 42 42 42 41 39 39 38 34 31 29 27 27 28 30 30 29 29 31 31 29 28 27 26 26 28 29 29 29 28 28 27 28 29 28 28 25 23 24
33 34 36 37 38 38 39 41 41 42 42 42 42 41 40 39 38 37 37 36 36 36 36 36 36 37 37 38 38 39 39 40 40 39 39 39 40 40 40 40 41 42 42 42 43 43 42 41 41 42 42 40 40 39 35 32 30 28 28 29 30 31 30 30 31 30 30 30 27 24 25 27 29 28 27 27 28 28 29 29 27 27 26 25 25
33 35 37 37 38 39 40 41 41 41 41 40 40 39 38 38 38 37 37 37 37 37 37 37 37 38 38 38 39 39 39 39 39 39 39 39 40 41 41 42 43 44 44 44 43 42 42 41 40 40 41 40 40 39 34 31 30 29 29 30 31 30 30 31 31 30 30 30 28 24 24 27 28 27 27 27 28 28 28 27 27 27 27 27 26
33 35 36 37 38 39 40 40 40 39 39 38 38 38 38 38 38 38 38 38 38 38 38 38 38 39 39 39 40 40 40 40 40 40 41 41 42 43 43 44 45 45 45 45 44 43 42 41 40 39 40 40 40 38 34 31 30 30 30 30 30 30 29 29 30 29 29 29 28 25 24 25 26 27 27 27 27 27 27 27 27 27 27 28 28
31 33 34 35 36 37 38 38 38 37 37 37 37 38 38 38 38 38 38 38 38 38 38 38 39 39 40 41 41 41 42 42 43 43 44 44 45 45 45 46 46 47 47 46 46 44 42 41 40 39 38 38 39 38 35 31 30 31 31 29 29 30 29 28 28 29 29 28 28 26 24 24 25 26 26 26 27 27 27 27 27 27 28 29 29
29 32 33 34 35 36 36 36 36 36 36 36 37 38 38 38 38 38 38 38 39 39 39 39 40 40 41 42 42 43 44 44 44 45 45 45 46 46 47 47 47 48 48 47 47 45 42 40 40 39 37 36 36 36 34 31 29 30 29 28 28 30 31 30 29 29 28 28 28 27 25 24 24 25 26 27 28 28 27 27 27 27 28 29 28
28 30 32 32 33 34 34 35 35 35 35 36 36 37 37 37 38 38 39 39 40 40 40 41 41 41 42 42 42 43 43 43 43 43 43 44 45 46 46 47 47 48 48 48 48 46 43 39 38 38 36 34 34 34 32 29 27 27 27 27 27 28 29 31 30 29 29 29 28 28 27 26 25 26 27 27 28 28 27 28 28 28 29 29 28
27 28 29 29 30 31 32 33 33 34 34 35 36 36 37 37 38 39 40 40 41 41 41 41 41 42 42 41 41 42 42 42 43 43 43 44 44 45 46 47 47 48 49 49 48 47 45 41 38 37 36 34 32 31 31 29 27 26 25 25 25 25 27 29 30 29 29 28 28 28 29 28 27 27 28 28 28 28 27 27 28 29 30 30 29
27 27 28 28 29 30 31 32 33 34 35 36 37 37 38 38 38 39 40 40 40 41 41 41 41 41 42 42 42 42 43 43 43 43 44 44 45 45 46 47 47 48 49 49 49 48 47 43 39 38 37 35 32 31 30 28 27 27 27 26 25 25 27 29 30 31 30 29 28 29 29 29 29 28 28 27 27 28 28 28 29 30 30 30 30
28 28 28 29 30 31 32 33 34 35 36 37 37 37 37 38 39 40 40 40 40 41 41 41 41 42 42 43 43 44 44 44 45 45 45 46 46 46 47 47 47 48 49 49 49 49 48 45 41 39 39 38 35 33 31 29 27 27 27 27 27 27 28 29 30 31 31 31 30 30 29 30 30 30 29 27 26 27 29 29 30 31 31 31 31
27 28 28 29 30 32 33 34 36 36 37 36 37 37 38 39 41 42 42 41 41 41 41 42 42 43 44 44 45 46 46 47 47 48 48 48 48 48 48 48 48 48 49 49 49 48 47 45 42 39 38 39 38 36 34 31 29 28 27 28 29 29 30 31 31 32 32 32 32 32 31 31 31 30 29 28 27 28 30 30 30 31 31 31 32
27 27 27 28 29 30 32 34 35 36 36 37 37 38 39 40 41 41 41 41 41 41 41 42 43 43 44 45 46 47 47 48 48 49 49 49 49 50 50 49 49 49 49 49 49 49 47 46 44 40 38 39 39 38 36 33 31 29 28 27 28 30 31 32 32 34 35 34 34 35 35 34 33 31 29 29 29 29 31 31 30 30 30 31 32
29 29 29 29 30 30 31 32 33 35 36 37 38 39 39 39 39 39 39 39 39 40 40 41 42 42 44 45 46 47 47 48 48 49 49 50 50 50 50 50 50 50 49 49 50 50 49 47 45 42 39 38 39 39 38 36 33 31 30 29 27 28 30 32 33 34 35 35 36 36 37 37 36 34 32 31 29 28 30 32 31 30 30 31 31
30 30 30 30 30 31 32 33 34 35 36 37 38 37 37 37 37 37 38 38 39 40 41 41 42 44 45 46 47 48 49 50 50 51 52 52 52 52 53 52 52 52 51 51 51 51 51 49 48 46 43 40 40 40 40 38 36 34 32 31 29 28 28 29 32 34 35 36 36 37 38 38 38 37 36 35 32 29 30 33 34 31 31 32 32
29 30 30 31 31 32 32 33 33 34 34 35 35 35 36 36 37 38 39 39 40 41 42 43 44 45 46 47 48 49 50 51 52 53 54 54 55 55 56 56 55 55 55 55 54 54 54 53 52 50 47 44 42 41 41 41 39 37 35 33 32 31 30 29 29 31 33 34 36 37 38 39 38 37 37 38 38 35 33 34 36 35 33 33 33
30 31 31 31 31 31 31 31 31 31 32 33 33 34 35 36 37 38 39 39 40 41 41 42 43 44 45 45 46 47 48 49 50 51 52 53 54 55 56 56 57 57 57 57 57 57 57 57 56 53 50 47 44 43 43 42 42 40 38 36 35 34 33 31 30 29 30 30 32 36 39 40 38 36 35 37 39 39 37 37 37 37 36 36 36
30 30 30 30 30 29 29 29 29 30 31 32 33 34 34 35 36 36 36 37 37 38 38 39 40 41 42 43 45 46 47 48 49 50 51 52 52 53 54 54 55 56 56 57 58 58 58 58 57 55 52 49 46 45 44 44 44 43 41 39 38 37 35 34 33 32 30 30 30 31 35 38 39 38 37 38 40 41 41 40 40 40 39 39 40
29 28 28 28 27 27 27 28 28 29 30 31 31 31 32 32 32 32 33 34 35 35 37 38 39 40 42 43 45 46 47 48 50 51 52 52 53 53 54 54 54 54 55 55 56 57 57 58 58 56 53 50 46 45 44 44 45 44 43 42 41 40 39 37 36 35 34 33 32 31 31 33 36 38 39 39 39 40 40 41 43 43 42 42 43
26 26 26 26 26 26 27 27 27 28 27 27 27 27 28 28 29 30 30 31 32 33 34 35 36 38 39 41 42 44 46 47 48 50 51 52 53 54 54 55 55 55 55 55 55 55 56 56 57 56 53 51 47 44 43 44 44 44 45 44 43 42 42 40 40 39 37 36 35 34 33 32 33 35 36 37 38 37 36 37 40 42 44 46 47
25 25 25 25 25 25 25 24 24 24 23 24 24 24 25 25 26 26 26 26 27 28 29 31 32 34 35 37 38 39 41 42 43 45 46 47 49 50 51 53 53 54 54 55 55 55 55 55 56 56 54 52 49 45 43 43 43 44 45 45 44 44 44 44 43 42 40 39 38 38 37 35 34 35 35 36 36 36 36 36 38 38 40 44 47
24 23 23 23 22 21 21 20 20 20 20 21 21 21 21 20 20 21 21 22 24 25 26 28 29 31 32 33 34 35 36 37 38 39 40 41 42 43 45 46 48 49 51 52 53 54 55 55 55 56 55 54 51 47 44 42 42 43 44 45 45 45 45 45 45 45 43 42 41 40 40 38 37 37 38 37 37 37 39 39 37 35 34 36 38
21 21 20 19 18 18 17 17 18 18 17 17 17 16 16 16 17 18 19 20 22 23 24 26 27 29 30 31 32 33 33 34 35 36 36 37 37 37 38 39 41 42 44 46 48 50 51 53 53 54 55 54 52 49 46 43 42 42 43 44 45 45 45 45 46 47 46 45 44 44 43 41 40 39 40 40 38 38 40 41 40 38 35 33 31
18 17 16 16 15 15 15 15 15 14 13 13 13 14 15 16 16 17 18 19 20 22 23 25 27 28 30 32 34 36 37 37 37 36 36 36 36 36 36 36 37 37 38 39 41 43 45 47 49 50 52 53 52 50 47 45 43 42 42 43 43 44 45 45 45 46 47 47 47 46 45 44 44 42 42 41 39 39 40 41 41 39 38 35 33
15 14 14 14 13 13 12 12 11 11 11 11 12 14 15 15 16 17 18 19 20 22 23 25 27 29 31 33 35 37 38 40 40 39 37 36 35 36 36 36 36 36 36 37 38 38 39 41 43 45 47 49 49 49 47 45 43 43 42 43 43 44 44 45 45 45 46 47 48 48 47 46 46 45 45 43 41 40 41 42 42 41 39 37 36
13 13 12 11 10 10 9 9 9 9 10 11 12 13 14 15 16 17 19 20 21 22 24 25 27 29 31 32 34 35 37 39 41 41 39 36 34 33 33 34 35 35 35 36 36 37 38 37 38 39 41 43 45 46 45 44 43 43 42 43 43 44 44 44 45 44 45 46 47 48 48 47 46 46 46 45 43 42 42 43 43 44 42 39 37
11 10 9 8 8 8 8 8 8 9 10 11 12 13 14 15 16 18 19 20 21 23 24 26 27 28 30 31 33 35 36 38 40 42 42 40 37 34 32 33 33 34 34 34 34 36 37 37 36 36 37 39 40 41 42 42 41 42 42 42 43 44 44 44 44 44 44 44 45 46 47 47 46 46 46 45 44 43 43 43 44 45 44 42 40
Wind_Direction
260 255 259 260 264 266 267 267 267 269 270 272 273 274 279 287 295 297 295 294 294 295 295 297 300 303 304 302 301 301 302 304 305 304 306 307 306 306 307 311 314 313 310 308 308 308 307 305 304 305 306 307 307 307 309 310 311 311 309 309 306 302 299 298 296 290 285 283 279 276 275 270 258 253 257 259 261 261 262 267 268 270 269 266 268
257 256 254 253 256 259 262 265 266 268 271 273 273 275 281 289 295 296 295 295 295 296 297 299 302 301 300 299 298 297 297 300 300 299 302 304 305 306 307 309 312 314 315 314 314 313 312 310 309 307 306 304 303 302 302 303 306 307 308 308 307 304 301 299 295 289 287 286 286 282 276 268 257 255 260 260 257 257 259 265 266 266 265 258 255
255 256 252 249 251 256 260 261 262 264 269 272 272 276 283 290 295 295 295 296 295 295 297 301 302 301 299 299 297 295 295 296 296 296 299 301 302 304 305 308 309 312 314 315 315 315 314 313 312 311 309 307 304 300 298 298 300 302 304 305 305 305 301 298 293 289 288 288 292 290 277 263 254 257 264 261 257 259 262 265 263 263 263 258 254
251 252 250 250 252 256 259 259 260 264 268 272 274 278 284 290 295 296 296 297 296 295 296 299 300 299 297 295 293 291 292 293 293 294 295 297 300 301 301 303 305 307 310 311 312 313 313 312 311 311 310 310 307 302 298 296 296 297 299 299 300 301 301 298 294 290 289 290 294 294 278 259 253 259 264 260 258 262 264 263 261 260 259 255 255
250 251 253 255 257 257 258 259 261 264 268 271 275 280 286 291 294 296 298 298 298 296 295 298 299 298 295 292 290 288 289 289 290 291 292 293 295 295 296 298 300 302 304 306 308 309 310 309 309 309 309 309 309 305 299 294 293 293 293 294 294 295 297 296 292 290 290 290 293 293 280 260 253 257 260 257 257 262 263 263 260 258 257 254 254
252 254 256 257 257 256 256 259 262 265 269 270 274 279 284 290 293 295 298 299 300 298 298 300 300 298 295 292 289 286 286 286 286 288 288 290 291 292 294 297 299 300 301 303 305 306 307 307 307 307 308 308 308 306 301 294 291 290 290 290 290 290 292 291 289 288 289 289 290 290 282 263 252 254 255 253 255 259 260 260 258 258 258 255 251
253 255 257 257 256 257 258 260 263 266 270 271 273 278 282 287 291 294 297 298 299 298 298 298 298 297 295 291 286 282 280 278 281 284 286 288 292 293 294 296 296 298 300 301 302 304 304 305 305 305 305 305 305 305 302 296 290 287 286 286 286 286 286 286 284 284 285 288 288 289 283 263 254 256 254 252 255 258 258 258 257 257 257 254 249
252 254 256 257 257 259 261 261 264 268 270 271 273 276 280 284 288 292 294 296 296 295 295 295 295 294 292 290 285 282 281 280 283 286 285 286 291 293 293 293 292 295 298 299 300 301 302 303 303 303 303 303 302 302 300 297 291 287 284 281 281 281 281 280 279 278 279 283 284 285 281 266 257 256 254 255 257 259 261 261 259 256 254 251 246
251 253 255 258 259 261 262 263 265 268 269 270 272 275 278 282 286 289 290 292 292 292 292 291 291 290 289 288 287 286 285 285 287 287 285 288 291 291 289 289 291 295 299 300 300 299 299 300 301 301 301 300 299 298 297 296 293 289 284 279 276 276 277 275 274 274 274 276 278 278 279 273 262 255 254 256 258 260 261 261 261 257 250 246 242
250 252 255 257 260 261 262 263 265 267 268 269 272 274 278 282 285 288 290 292 291 291 290 289 289 288 287 287 287 288 287 286 287 286 286 290 291 289 287 289 293 298 300 301 301 299 299 300 300 299 298 297 297 297 294 293 292 289 286 280 273 271 272 271 269 269 269 270 273 273 275 277 270 260 254 254 258 262 261 261 261 254 246 243 242
249 251 253 255 257 260 261 263 265 266 267 269 272 275 278 281 285 288 291 292 293 292 289 287 286 286 286 287 288 289 289 290 290 290 290 290 291 291 293 296 300 302 303 302 301 301 301 301 299 297 296 295 295 296 295 293 291 288 287 281 271 267 268 267 265 265 265 266 268 271 272 273 274 268 259 255 257 258 259 262 257 247 242 243 241
249 249 251 252 255 258 260 262 263 265 267 270 274 277 279 282 284 288 291 292 293 292 289 286 284 283 284 285 287 289 291 292 294 296 296 297 298 299 301 303 304 305 305 305 304 303 302 301 299 297 296 294 295 297 298 296 291 286 284 280 270 265 265 264 262 262 262 263 265 267 269 270 271 270 262 254 254 256 257 258 250 240 238 240 239
247 247 248 250 254 257 259 261 263 265 269 273 276 278 280 283 284 287 290 291 292 291 288 285 283 282 281 281 284 286 289 291 294 296 298 300 301 302 304 305 306 306 307 307 306 303 302 301 300 298 296 295 298 299 296 294 291 284 281 280 271 263 261 260 260 260 260 262 263 263 264 267 268 266 260 255 255 256 252 247 242 237 236 237 238
244 244 246 249 252 255 257 260 262 266 271 275 277 279 280 283 284 285 288 289 290 289 286 283 281 280 279 279 281 283 286 289 292 294 296 298 299 301 303 304 305 307 307 307 306 304 303 302 302 300 297 297 300 299 292 288 288 284 278 279 274 267 261 257 257 258 259 261 262 260 261 265 265 262 260 257 254 251 245 241 241 238 237 239 240
242 242 244 248 250 253 256 259 263 268 273 275 277 279 281 283 283 284 286 288 289 289 286 283 281 279 279 279 280 282 284 286 289 291 293 295 297 299 302 303 304 305 305 305 304 304 304 303 302 302 301 300 299 298 292 285 286 282 275 275 274 269 264 258 255 255 256 258 258 258 259 261 261 261 260 256 251 247 246 246 244 240 239 240 241
240 241 244 247 250 253 256 259 265 269 273 275 278 281 283 284 284 284 286 287 288 288 286 283 280 279 279 279 280 281 283 285 287 288 290 292 295 297 300 302 302 303 304 304 304 304 304 303 302 302 302 301 298 296 292 286 283 279 274 273 269 264 261 258 255 253 252 253 254 254 254 255 257 259 258 255 251 247 247 247 245 242 242 244 245
241 242 245 248 251 254 257 261 266 270 272 276 280 282 283 284 285 285 286 287 288 287 285 283 281 280 279 279 280 281 283 284 285 287 289 291 294 296 299 300 300 301 303 303 303 304 303 302 302 303 303 303 300 296 292 287 283 277 273 271 265 261 258 255 254 252 250 251 252 252 251 250 251 251 251 252 252 250 247 246 247 246 246 246 247
242 243 246 249 251 254 258 263 267 270 273 277 281 282 283 285 286 286 287 288 288 288 285 283 281 280 279 279 280 281 282 284 285 287 289 292 294 296 298 298 298 300 301 302 302 302 301 301 302 304 306 307 306 301 294 289 285 278 273 270 267 264 259 254 252 250 249 251 252 251 250 249 247 246 248 252 253 250 248 248 251 251 248 246 243
241 243 245 248 251 255 260 264 268 271 275 278 280 281 283 285 287 287 287 287 287 287 285 283 281 279 279 279 280 281 282 283 285 287 290 293 294 296 297 297 298 299 301 301 301 301 300 301 303 306 309 309 310 306 297 291 288 281 272 267 265 264 261 257 253 249 247 249 250 250 250 249 247 245 248 251 252 250 250 252 254 252 250 247 244
241 242 244 247 251 256 261 265 269 273 276 278 280 281 282 284 286 287 286 286 285 285 283 281 279 278 277 278 278 280 281 282 284 287 290 292 294 295 295 295 297 299 300 300 300 299 300 302 304 307 310 310 310 307 298 290 289 284 273 264 261 262 262 258 252 247 245 247 250 252 252 251 249 248 248 249 249 250 251 252 251 251 252 251 249
241 242 244 247 252 257 261 265 270 273 275 277 278 280 281 283 285 286 286 284 283 282 281 279 278 276 276 276 277 278 280 282 285 287 290 291 293 294 293 294 296 297 298 298 297 298 300 303 305 308 310 310 310 308 298 289 287 282 271 263 260 262 261 256 250 248 247 247 248 251 253 253 253 251 248 247 248 250 251 250 249 250 250 250 251
242 243 246 249 253 257 261 265 269 271 273 275 277 278 280 282 284 285 284 282 280 280 280 278 276 275 275 275 276 277 279 282 285 287 289 290 291 292 292 293 295 295 295 296 296 298 301 303 306 308 310 311 311 308 298 290 285 278 267 260 260 262 261 257 251 248 246 245 247 252 254 255 255 252 249 247 248 250 251 251 250 249 248 250 254
244 245 247 251 254 257 261 264 267 269 272 274 276 277 279 282 283 283 281 280 280 279 279 277 275 275 275 275 275 276 279 281 284 286 287 289 290 291 292 293 293 294 294 295 296 298 301 302 305 308 310 312 313 309 300 292 286 277 266 259 258 259 258 256 250 244 242 243 248 252 254 253 253 251 248 247 247 249 251 253 253 250 247 250 253
245 246 248 251 254 257 261 263 266 269 271 273 275 277 280 281 281 280 279 279 279 278 277 275 275 275 275 275 276 277 279 281 283 285 286 288 289 289 291 291 292 292 293 294 296 298 300 302 304 308 310 312 313 308 299 292 284 276 267 261 258 255 251 247 245 241 239 240 243 247 249 249 250 249 248 247 246 248 251 253 253 250 247 248 251
245 247 250 253 255 258 261 263 266 268 270 273 275 277 279 279 278 278 277 277 277 276 275 274 275 275 275 276 276 277 279 281 283 284 285 286 286 287 288 289 290 291 292 294 296 298 300 302 303 306 309 311 312 306 296 287 280 272 265 261 260 256 247 242 239 237 236 236 238 242 246 247 247 247 247 246 247 248 249 251 251 251 250 250 251
246 249 251 254 257 259 262 264 266 268 270 272 274 276 276 276 275 276 276 276 276 275 275 275 275 275 276 276 277 278 280 281 282 282 283 283 284 285 287 288 289 291 293 294 296 298 300 302 304 306 308 310 312 309 298 285 278 271 263 259 257 254 247 241 237 234 236 236 235 238 244 246 246 245 245 246 247 248 248 248 248 249 250 250 251
247 250 252 254 257 259 262 263 265 267 269 271 272 272 272 273 274 274 275 276 276 275 275 275 275 276 276 277 277 278 279 280 281 281 282 282 283 284 286 288 289 291 292 294 296 298 299 302 305 306 308 309 312 311 300 286 278 272 264 259 257 252 246 241 238 236 237 238 237 236 241 246 247 248 248 249 248 248 248 247 246 247 250 251 251
248 250 252 254 256 259 261 263 264 266 267 267 267 268 269 271 272 273 274 274 275 275 274 274 274 275 275 276 276 277 278 279 280 281 281 282 283 285 286 288 290 291 292 293 295 297 298 302 304 306 307 308 310 310 302 288 281 274 267 264 260 252 246 245 243 238 235 236 238 237 239 244 247 247 248 248 248 248 248 248 250 251 253 254 255
248 250 252 254 256 258 260 261 262 263 263 263 264 266 268 270 271 273 274 274 275 275 274 275 274 274 275 275 275 276 277 278 279 280 282 283 283 285 286 288 289 290 291 292 294 296 297 300 303 304 306 307 309 310 302 291 282 274 268 267 260 251 247 247 243 236 232 234 237 237 237 241 244 246 249 249 249 248 248 250 252 252 253 256 257
249 251 253 254 256 257 257 258 259 260 260 262 264 266 268 270 272 274 275 276 276 277 277 277 276 276 276 276 276 276 277 278 279 280 281 282 283 284 285 287 288 289 289 291 293 295 296 298 300 302 304 305 308 309 305 295 285 274 266 264 259 250 246 245 242 237 236 235 236 237 237 237 240 245 250 252 251 250 249 250 251 252 253 255 257
250 251 252 253 254 255 255 257 258 259 261 263 265 267 269 272 273 275 277 278 279 279 280 280 280 279 279 278 278 279 279 280 280 281 281 281 282 283 284 285 286 287 288 289 291 294 295 296 297 299 302 303 305 308 308 300 288 277 268 263 258 251 246 244 241 237 235 235 236 239 240 237 238 242 247 251 252 253 254 254 254 255 254 254 255
249 250 252 253 254 255 256 258 260 261 263 264 266 269 271 273 275 277 278 279 280 281 281 282 282 281 281 280 280 280 281 281 281 281 281 281 282 282 283 284 284 285 286 288 289 292 293 294 295 296 298 301 303 305 307 300 286 277 271 265 260 253 246 242 237 232 233 235 236 240 242 240 240 242 245 248 251 253 256 257 257 258 257 255 254
250 250 252 253 254 256 257 259 261 262 264 266 268 270 273 275 277 279 280 281 281 281 281 281 282 281 281 280 280 281 281 281 281 281 281 281 281 281 282 282 283 284 285 286 288 290 291 292 293 294 295 298 300 301 304 300 287 276 270 265 257 249 242 239 236 236 237 236 236 240 244 244 243 244 243 242 245 249 252 253 255 257 257 256 255
250 251 252 253 255 257 258 260 262 263 266 268 271 273 275 277 279 280 281 281 281 281 281 281 281 280 279 278 279 280 281 281 281 281 281 281 281 281 281 281 282 283 283 285 286 288 289 290 290 290 291 293 296 297 299 299 292 280 271 266 258 248 242 241 242 243 241 236 236 240 244 246 247 246 242 238 239 246 251 252 253 253 253 254 254
252 254 255 257 259 260 261 263 265 267 269 271 273 275 276 277 279 280 281 281 281 281 281 280 280 279 278 278 279 280 281 281 281 281 281 281 281 281 281 280 280 281 281 282 284 286 287 288 288 288 288 289 291 292 293 294 293 285 276 268 262 255 249 246 247 245 239 235 237 239 241 245 249 249 247 244 241 245 249 250 250 250 249 248 250
258 259 260 262 264 265 266 266 267 269 271 273 274 275 276 277 279 281 281 281 281 280 280 280 280 280 279 279 279 280 280 281 281 281 280 280 280 280 279 279 279 279 279 280 281 282 284 286 287 286 286 286 286 287 288 289 289 287 282 274 266 260 256 252 249 245 240 239 242 242 240 244 248 248 249 249 248 247 249 249 249 248 247 246 246
266 266 266 267 268 269 269 268 268 269 271 273 274 275 277 279 280 281 282 282 281 281 281 281 281 281 281 281 280 280 280 280 280 280 280 279 279 279 278 278 278 277 277 277 278 279 280 282 284 284 283 282 283 284 284 284 283 283 282 279 272 264 259 256 253 249 245 244 245 245 244 245 247 247 248 251 252 252 251 252 251 249 248 248 247
269 270 270 271 271 271 271 270 270 270 272 273 275 276 277 278 279 280 281 281 281 281 281 281 282 282 282 282 281 281 281 280 280 280 280 279 279 278 278 277 277 276 276 276 276 276 277 278 280 281 280 279 279 280 280 280 279 278 277 277 275 269 261 257 256 254 250 246 245 246 246 246 246 246 247 251 254 253 251 252 252 250 247 246 248
269 270 271 271 272 272 272 273 272 272 273 274 274 276 277 278 279 280 281 281 282 282 283 283 283 283 283 283 283 283 282 282 281 281 280 280 279 279 278 277 276 276 276 275 275 275 276 276 277 279 279 277 275 276 277 277 277 275 274 273 273 271 266 260 258 256 252 248 247 245 245 245 246 246 246 250 253 252 250 251 252 252 249 247 249
269 269 270 271 271 272 273 273 273 273 273 274 275 276 278 279 281 282 283 284 285 285 286 286 286 286 286 285 285 285 284 284 283 283 282 281 280 280 279 278 277 276 275 275 275 275 275 276 276 277 277 276 274 272 273 274 274 273 271 270 269 268 267 265 262 259 254 250 247 246 246 247 247 247 248 251 253 253 253 253 254 255 255 253 251
269 270 270 271 271 272 272 272 273 274 274 276 277 279 281 282 284 285 286 287 288 289 289 289 289 289 289 288 288 287 287 286 286 285 284 283 282 282 281 280 279 278 277 276 275 275 275 276 276 276 276 275 273 271 270 270 271 271 270 268 266 265 264 264 263 263 261 256 251 248 249 250 250 249 249 252 253 253 252 253 254 255 255 254 253
269 269 269 270 270 271 272 273 274 276 277 279 281 283 284 286 287 289 290 291 292 292 293 292 292 292 291 290 290 289 288 287 286 285 285 284 283 282 282 281 280 280 279 277 277 276 275 276 277 277 277 275 273 270 268 267 268 268 268 266 265 263 262 261 260 260 261 261 259 254 252 252 251 249 248 250 252 253 253 253 254 254 255 255 254
267 267 268 270 271 273 274 276 277 279 281 283 285 286 288 290 291 292 294 294 295 295 295 295 295 294 293 292 291 290 288 287 286 285 284 283 282 281 281 280 280 279 279 278 278 277 276 276 277 278 278 277 274 270 268 266 265 265 265 265 263 262 261 259 259 258 257 258 259 258 257 255 252 249 247 247 249 251 254 255 255 255 256 257 255
266 268 269 271 273 275 277 278 281 283 285 286 287 289 291 292 293 295 296 297 298 299 300 300 300 300 299 297 296 295 292 290 289 287 286 284 283 281 280 280 279 278 278 277 277 277 276 276 277 278 279 278 276 273 269 266 263 262 262 262 262 261 260 259 258 257 257 256 256 256 257 258 258 256 252 250 248 248 250 256 258 257 256 257 257
267 269 271 273 274 277 279 281 283 284 285 287 289 291 294 296 298 300 302 304 306 308 310 310 311 310 309 307 306 304 302 299 296 294 292 290 288 285 283 282 280 279 278 277 276 275 275 275 276 276 277 277 277 275 271 267 264 261 259 259 259 258 258 259 258 257 256 256 255 254 254 255 257 259 259 257 255 252 252 255 257 256 255 255 256
268 270 272 274 276 278 279 280 282 283 286 289 293 295 298 301 305 308 312 314 317 320 322 323 324 324 323 322 320 319 317 314 310 306 302 299 297 294 291 288 285 282 280 278 277 275 274 274 274 274 275 275 276 275 272 268 265 262 260 258 257 256 255 256 256 257 256 255 255 254 254 253 252 255 257 257 256 256 257 259 257 255 255 256 257
268 270 272 273 274 275 277 279 282 286 290 293 296 299 303 308 312 317 321 325 328 330 333 335 337 338 339 339 338 337 335 332 327 322 316 312 309 305 302 298 294 290 287 283 280 277 275 274 273 273 273 273 273 273 272 269 266 263 261 259 257 256 254 253 253 254 255 255 255 254 254 253 251 251 252 254 254 255 258 262 263 262 260 259 261
266 267 267 267 269 272 277 282 285 288 291 295 300 305 310 314 317 322 326 331 335 339 342 345 347 349 350 352 352 351 349 347 343 337 330 324 320 316 312 308 304 301 297 293 288 284 280 277 274 273 272 272 272 271 270 268 265 263 262 260 258 256 254 252 251 251 252 253 254 254 253 253 253 251 250 251 252 254 256 259 261 262 262 262 263
257 258 260 263 269 275 279 281 283 288 295 301 307 312 316 320 324 327 330 334 339 344 348 351 352 353 354 355 355 355 355 354 352 347 340 333 326 321 318 314 311 308 305 301 297 293 288 283 279 276 273 272 271 270 269 267 264 261 260 259 258 257 255 254 252 251 250 250 251 252 252 252 252 252 252 251 251 252 253 256 257 258 259 261 262
250 254 258 264 269 272 274 277 284 295 303 309 315 319 323 328 331 334 337 340 342 346 349 351 353 353 354 354 354 354 355 355 355 353 349 342 333 327 323 319 316 313 309 306 302 298 294 290 286 282 278 274 272 271 269 267 264 260 257 256 256 256 255 255 253 252 251 250 250 250 250 251 251 251 252 251 250 250 251 252 255 256 256 257 257
247 251 256 259 261 265 272 283 295 305 313 319 324 327 331 334 336 339 341 343 345 346 348 350 351 352 353 353 352 352 353 354 355 355 354 350 344 337 332 328 325 320 316 311 305 301 297 293 289 285 282 278 275 272 270 267 264 260 256 253 252 253 253 254 254 253 252 251 250 250 250 250 250 250 250 250 249 249 249 249 251 253 254 255 254